Location: *
(44.9308°N, 123.0197°W)
Time: 04:48:41
(UTC+00:00)

PSLV R/B - Pass Details

Date: 09 April 2020
Orbit: 567 x 599 km, 98.2° (Epoch: 24 May)

Event Time Altitude Azimuth Distance (km) Brightness Sun altitude
Rises 13:02:05 0° 176° (S) 2,831 7.3 -6.8°
Reaches altitude 10° 13:04:17 10° 181° (S) 1,932 6.4 -6.4°
Maximum altitude 13:08:24 54° 260° (W) 731 4.1 -5.7°
Drops below altitude 10° 13:12:32 10° 337° (NNW) 1,936 6.6 -5.0°
Sets 13:14:44 0° 343° (NNW) 2,838 7.4 -4.7°
